[[{"header":{"parameterUnit":"m.s-1","parameterCategory":1,"la1":30.2991,"la2":30.254,"lo1":-89.0895,"lo2":-89.0444,"dy":0.0017,"dx":0.0017,"nx":28,"ny":28,"refTime":"2024-10-18T21:00:00:Z","depth":0,"parameterNumber":2,"parameterNumberName":"U-component_of_WINDS"},"data":[0,0,0,0,0,0,0,0,0,0,0,0,0,0,0,0,0,0,0,0,0,0,0,0,0,0,0,0,0,0,0,0,0,0,0,0,0,0,0,0,0,0,0,0,0,0,0,0,0,0,0,0,0,0,0,0,0,0,-5.1049,-5.105,0,-5.1141,-5.1142,-5.1143,-5.1047,-5.1044,-5.104,-5.1036,-5.1133,-5.1138,-5.1144,0,0,0,0,0,0,0,0,0,0,0,0,0,-5.0794,-5.0799,-5.1049,-5.105,-5.1051,-5.114,-5.1142,-5.1143,-5.1048,-5.1043,-5.1039,-5.1035,-5.1131,-5.1138,-5.1145,0,0,0,0,0,0,0,0,0,0,0,0,0,-5.0897,-5.0801,-5.1049,-5.1015,-5.1012,-5.114,-5.1142,-5.1143,-5.1049,-5.1043,-5.1038,-5.1032,-5.1128,-5.1137,-5.1146,-5.1313,0,0,-5.1173,-5.1177,0,0,0,0,0,0,0,0,-5.0892,-5.0907,-5.1018,-5.1017,-5.1015,-5.1077,-5.1087,-5.12,-5.105,-5.1035,-5.1036,-5.103,-5.1119,-5.1128,-5.1158,-5.1317,-5.1321,-5.1174,-5.118,-5.1184,-5.1186,0,0,0,0,0,0,0,-5.0885,-5.0902,-5.1085,-5.102,-5.1018,-5.0995,-5.1004,-5.1108,-5.1107,-5.1036,-5.1029,-5.1041,-5.1117,-5.1149,-5.1159,-5.1323,-5.1174,-5.1182,-5.1188,-5.1191,-5.1626,-5.1632,0,0,0,0,0,0,-5.0881,-5.0897,-5.1082,-5.1088,-5.0938,-5.1004,-5.1014,-5.1063,-5.1106,-5.1107,-5.1046,-5.1036,-5.1136,-5.1149,-5.1162,-5.1362,-5.1183,-5.1192,-5.1197,-5.162,-5.1627,-5.1634,0,0,0,0,0,0,-5.0876,-5.0898,-5.1079,-5.0991,-5.1012,-5.1015,-5.107,-5.1067,-5.11,-5.1113,-5.1113,-5.1079,-5.1132,-5.1149,-5.1276,-5.1364,-5.1196,-5.1204,-5.1613,-5.1622,-5.1631,-5.1762,0,0,0,0,0,0,-5.0869,-5.0897,-5.096,-5.0993,-5.1017,-5.1191,-5.1075,-5.1073,-5.1115,-5.1104,-5.1144,-5.1146,-5.1129,-5.1263,-5.1285,-5.1373,-5.1211,-5.1605,-5.1617,-5.1628,-5.175,-5.1775,-5.1796,0,0,0,0,0,-5.086,-5.0993,-5.0964,-5.0987,-5.1096,-5.1196,-5.121,-5.1188,-5.1123,-5.1186,-5.1195,-5.1144,-5.135,-5.1277,-5.1301,-5.1393,-5.1599,-5.1613,-5.1627,-5.174,-5.177,-5.1795,0,0,0,0,0,0,-5.0971,-5.0997,-5.0964,-5.1112,-5.1153,-5.118,-5.1259,-5.122,-5.1281,-5.1268,-5.1239,-5.1249,-5.1384,-5.14,-5.1318,-5.1558,-5.1464,-5.1484,-5.1542,-5.1571,-5.1593,-5.1587,-5.1219,0,0,0,0,0,-5.1013,-5.1092,-5.111,-5.1239,-5.1261,-5.1257,-5.13,-5.1279,-5.1321,-5.1337,-5.1355,-5.1398,-5.1472,-5.1522,-5.1591,-5.1751,-5.176,-5.1826,-5.1849,-5.1868,-5.1886,-5.1974,-5.2004,-5.1679,-5.1679,-5.1679,0,0,-5.11,-5.1124,-5.1175,-5.1262,-5.1291,-5.1374,-5.1272,-5.1364,-5.1426,-5.1352,-5.1473,-5.1488,-5.1533,-5.1678,-5.1743,-5.1697,-5.1977,-5.1886,-5.19,-5.1908,-5.1991,-5.2022,-5.2049,-5.1689,-5.1687,-5.1685,0,0,-5.1301,-5.1327,-5.1437,-5.1468,-5.1513,-5.151,-5.1537,-5.157,-5.1577,-5.1698,-5.1645,-5.1718,-5.1846,-5.1882,-5.1916,-5.2132,-5.2088,-5.2155,-5.2276,-5.2362,-5.2387,-5.241,-5.2489,-5.2517,-5.2172,-5.2173,-5.2173,0,-5.1404,-5.1527,-5.1499,-5.1596,-5.1636,-5.1572,-5.1685,-5.1716,-5.1782,-5.1812,-5.1759,-5.1919,-5.1945,-5.2098,-5.2151,-5.2181,-5.2212,-5.2151,-5.2386,-5.2408,-5.2429,-5.2504,-5.2533,-5.2181,-5.218,-5.2179,-5.2178,0,-5.1652,-5.1738,-5.1822,-5.1887,-5.1936,-5.2041,-5.203,-5.2084,-5.2059,-5.2062,-5.2187,-5.2216,-5.229,-5.2325,-5.2302,-5.2475,-5.2445,-5.239,-5.2295,-5.2468,-5.2538,-5.2566,-5.2192,-5.2189,-5.2187,-5.2185,0,0,-5.1927,-5.1975,-5.2007,-5.2036,-5.2081,-5.2148,-5.225,-5.2322,-5.2369,-5.2417,-5.2503,-5.2613,-5.2562,-5.2601,-5.2582,-5.2657,-5.2829,-5.2592,-5.2593,-5.2637,-5.3024,-5.3067,-5.3101,-5.2799,-5.2804,-5.2809,-5.3021,0,-5.2131,-5.2307,-5.2285,-5.2454,-5.2534,-5.2475,-5.2563,-5.2602,-5.2607,-5.2676,-5.2682,-5.2762,-5.2687,-5.2711,-5.2783,-5.2793,-5.2906,-5.2777,-5.2881,-5.2885,-5.2873,-5.3137,-5.3183,-5.3382,-5.3048,-5.3052,-5.3056,0,-5.2392,-5.2449,-5.2626,-5.266,-5.2693,-5.2773,-5.2839,-5.2905,-5.2948,-5.2946,-5.2991,-5.2958,-5.3062,-5.2965,-5.3108,-5.302,-5.3061,-5.3073,-5.308,-5.309,-5.2982,-5.3157,-5.3444,-5.3475,-5.3098,-5.3095,-5.3092,0,-5.2577,-5.2698,-5.282,-5.2847,-5.2889,-5.2947,-5.2968,-5.3004,-5.305,-5.3107,-5.3136,-5.3205,-5.3243,-5.3298,-5.3285,-5.3215,-5.3433,-5.3334,-5.3436,-5.3437,-5.3486,-5.3483,-5.3787,-5.351,-5.3509,-5.3509,-5.3508,0,-5.2809,-5.292,-5.2904,-5.2979,-5.3103,-5.3077,-5.32,-5.3213,-5.3246,-5.3324,-5.3276,-5.335,-5.3328,-5.3402,-5.3392,-5.3514,-5.3531,-5.3534,-5.353,-5.3539,-5.3539,-5.3567,-5.3554,-5.3516,-5.3515,-5.3513,-5.3512,0,-5.3037,-5.303,-5.316,-5.3189,-5.3199,-5.3289,-5.3315,-5.3386,-5.3387,-5.3486,-5.3508,-5.3511,-5.3595,-5.3587,-5.3682,-5.3676,-5.3827,-5.3806,-5.3812,-5.3809,-5.3912,-5.3903,-5.4245,-5.429,-5.3982,-5.3985,-5.3988,0,-5.3186,-5.327,-5.3308,-5.3357,-5.3381,-5.3459,-5.3505,-5.3484,-5.3534,-5.3589,-5.3655,-5.3734,-5.3797,-5.3934,-5.3946,-5.4018,-5.4,-5.4115,-5.401,-5.4017,-5.4004,-5.4,-5.4009,-5.4136,-5.4139,-5.4142,-5.4144,0,-5.3451,-5.3444,-5.3512,-5.358,-5.3636,-5.3688,-5.3735,-5.3778,-5.3761,-5.382,-5.3905,-5.3954,-5.405,-5.4131,-5.42,-5.4221,-5.4182,-5.4177,-5.4205,-5.4216,-5.4217,-5.422,-5.3871,-5.417,-5.4167,-5.4165,-5.4164,-5.4163,-5.3646,-5.3718,-5.3757,-5.3835,-5.3868,-5.3913,-5.3982,-5.3992,-5.4063,-5.4139,-5.4122,-5.4219,-5.426,-5.4349,-5.4378,-5.4454,-5.4412,-5.4452,-5.4463,-5.4474,-5.4487,-5.4203,-5.4466,-5.4465,-5.4465,-5.4464,-5.4463,0,-5.391,-5.3932,-5.4004,-5.4072,-5.4133,-5.4088,-5.4139,-5.4194,-5.4279,-5.432,-5.4383,-5.4482,-5.456,-5.4577,-5.4652,-5.471,-5.4694,-5.4731,-5.4727,-5.4733,-5.4518,-5.4487,-5.4743,-5.4743,-5.4743,-5.4743,-5.4743,-5.4743,-5.4055,-5.4176,-5.4174,-5.4312,-5.4333,-5.4427,-5.446,-5.4502,-5.4535,-5.4647,-5.4712,-5.4722,-5.4755,-5.4832,-5.4902,-5.4905,-5.4936,-5.4981,-5.4977,-5.4776,-5.4748,-5.4722,-5.4693,-5.4987,-5.4987,-5.5186,-5.5188,-5.5189]},{"header":{"parameterUnit":"m.s-1","parameterCategory":1,"la1":30.2991,"la2":30.254,"lo1":-89.0895,"lo2":-89.0444,"dy":0.0017,"dx":0.0017,"nx":28,"ny":28,"refTime":"2024-10-18T21:00:00:Z","depth":0,"parameterNumber":3,"parameterNumberName":"V-component_of_WINDS"},"data":[0,0,0,0,0,0,0,0,0,0,0,0,0,0,0,0,0,0,0,0,0,0,0,0,0,0,0,0,0,0,0,0,0,0,0,0,0,0,0,0,0,0,0,0,0,0,0,0,0,0,0,0,0,0,0,0,0,0,-2.4934,-2.4934,0,-2.4893,-2.4892,-2.4892,-2.4825,-2.4823,-2.4822,-2.4821,-2.478,-2.478,-2.478,0,0,0,0,0,0,0,0,0,0,0,0,0,-2.4956,-2.4956,-2.4934,-2.4934,-2.4933,-2.4893,-2.4892,-2.4892,-2.4825,-2.4823,-2.4822,-2.482,-2.478,-2.478,-2.478,0,0,0,0,0,0,0,0,0,0,0,0,0,-2.4934,-2.4956,-2.4934,-2.4895,-2.4891,-2.4893,-2.4892,-2.4892,-2.4825,-2.4823,-2.4821,-2.482,-2.478,-2.478,-2.478,-2.4818,0,0,-2.478,-2.478,0,0,0,0,0,0,0,0,-2.4935,-2.4933,-2.4901,-2.4898,-2.4893,-2.4862,-2.4885,-2.4867,-2.4826,-2.485,-2.4821,-2.4819,-2.4809,-2.4806,-2.4803,-2.4816,-2.4814,-2.478,-2.4781,-2.4781,-2.4781,0,0,0,0,0,0,0,-2.4937,-2.4935,-2.4918,-2.4901,-2.4896,-2.4879,-2.4874,-2.4881,-2.4841,-2.4848,-2.4843,-2.4839,-2.4806,-2.4803,-2.4801,-2.4813,-2.478,-2.4781,-2.4781,-2.4781,-2.4854,-2.4856,0,0,0,0,0,0,-2.4944,-2.4936,-2.4919,-2.4917,-2.491,-2.4881,-2.4875,-2.4874,-2.484,-2.4833,-2.4841,-2.4836,-2.4804,-2.4801,-2.48,-2.4841,-2.4781,-2.4781,-2.4781,-2.4852,-2.4854,-2.4856,0,0,0,0,0,0,-2.4945,-2.4943,-2.4921,-2.4925,-2.4921,-2.4882,-2.4882,-2.4874,-2.487,-2.4835,-2.4827,-2.4844,-2.4802,-2.48,-2.4813,-2.4838,-2.4781,-2.4781,-2.485,-2.4853,-2.4855,-2.4923,0,0,0,0,0,0,-2.4946,-2.4944,-2.4958,-2.4926,-2.4921,-2.4935,-2.4883,-2.4875,-2.4871,-2.4864,-2.4836,-2.483,-2.48,-2.4814,-2.4813,-2.4837,-2.4781,-2.4847,-2.4851,-2.4854,-2.4919,-2.4928,-2.4936,0,0,0,0,0,-2.4947,-2.4979,-2.4959,-2.4957,-2.4937,-2.4937,-2.4934,-2.4899,-2.4873,-2.4887,-2.4863,-2.4831,-2.4836,-2.4816,-2.4815,-2.4839,-2.4846,-2.485,-2.4854,-2.4915,-2.4926,-2.4936,0,0,0,0,0,0,-2.5016,-2.4974,-2.4951,-2.4974,-2.496,-2.4926,-2.4942,-2.4913,-2.4906,-2.49,-2.4857,-2.4852,-2.4871,-2.4856,-2.4835,-2.4873,-2.4835,-2.484,-2.4882,-2.4893,-2.4901,-2.4904,-2.4781,0,0,0,0,0,-2.5033,-2.5036,-2.5,-2.5024,-2.5017,-2.4981,-2.498,-2.4954,-2.4937,-2.4931,-2.4908,-2.4894,-2.4891,-2.4891,-2.4888,-2.4916,-2.4909,-2.4933,-2.4941,-2.4949,-2.4953,-2.4966,-2.4976,-2.487,-2.487,-2.487,0,0,-2.5071,-2.5048,-2.5053,-2.5037,-2.5023,-2.5026,-2.4976,-2.4983,-2.4985,-2.4932,-2.4943,-2.4926,-2.4907,-2.4928,-2.4936,-2.4917,-2.498,-2.4954,-2.496,-2.496,-2.4971,-2.4982,-2.499,-2.4873,-2.4873,-2.4872,0,0,-2.514,-2.5123,-2.5141,-2.5127,-2.5106,-2.5081,-2.5085,-2.5055,-2.5042,-2.5052,-2.5012,-2.5014,-2.5012,-2.4999,-2.4993,-2.5056,-2.5026,-2.5056,-2.5102,-2.5116,-2.5124,-2.5131,-2.5153,-2.5161,-2.5061,-2.5061,-2.5061,0,-2.5189,-2.5192,-2.5154,-2.5162,-2.5156,-2.5107,-2.5125,-2.5113,-2.5092,-2.5089,-2.5067,-2.5062,-2.5046,-2.5063,-2.5078,-2.5075,-2.5078,-2.5059,-2.5126,-2.5132,-2.5139,-2.5159,-2.5168,-2.5065,-2.5064,-2.5064,-2.5063,0,-2.5253,-2.5256,-2.5273,-2.5253,-2.5249,-2.5262,-2.5225,-2.5226,-2.52,-2.5178,-2.5189,-2.5167,-2.5158,-2.516,-2.5135,-2.5173,-2.5162,-2.5133,-2.5095,-2.5153,-2.5172,-2.5179,-2.507,-2.5069,-2.5068,-2.5067,0,0,-2.5365,-2.5323,-2.5329,-2.5319,-2.5291,-2.5293,-2.5304,-2.5294,-2.5295,-2.5281,-2.5289,-2.5287,-2.5261,-2.5253,-2.5227,-2.5239,-2.5289,-2.5209,-2.5207,-2.5224,-2.5329,-2.535,-2.536,-2.5269,-2.527,-2.5271,-2.533,0,-2.5429,-2.5444,-2.5409,-2.5433,-2.5435,-2.5388,-2.5397,-2.5381,-2.536,-2.5359,-2.5336,-2.5335,-2.53,-2.5295,-2.5305,-2.5281,-2.531,-2.5276,-2.5275,-2.5276,-2.5281,-2.5369,-2.5392,-2.5449,-2.5337,-2.5338,-2.5339,0,-2.5505,-2.5494,-2.5518,-2.5488,-2.5487,-2.5496,-2.5484,-2.5483,-2.5464,-2.5448,-2.5439,-2.5407,-2.5415,-2.5378,-2.5388,-2.5366,-2.5364,-2.5352,-2.5353,-2.5352,-2.5311,-2.537,-2.5466,-2.5475,-2.535,-2.535,-2.5349,0,-2.5583,-2.5575,-2.5588,-2.5581,-2.5546,-2.5553,-2.5539,-2.5518,-2.5514,-2.5503,-2.55,-2.549,-2.5485,-2.5478,-2.5445,-2.5421,-2.5459,-2.5419,-2.5446,-2.5447,-2.5456,-2.5456,-2.5553,-2.5455,-2.5455,-2.5455,-2.5454,0,-2.5658,-2.5674,-2.5623,-2.5631,-2.5648,-2.5607,-2.5625,-2.5606,-2.5587,-2.5591,-2.555,-2.5554,-2.551,-2.5509,-2.5483,-2.5495,-2.5493,-2.548,-2.5473,-2.5484,-2.5485,-2.5481,-2.5476,-2.5457,-2.5456,-2.5456,-2.5456,0,-2.5748,-2.5715,-2.5726,-2.5692,-2.5683,-2.5697,-2.5668,-2.5674,-2.565,-2.5654,-2.5653,-2.5616,-2.5613,-2.5579,-2.5569,-2.5551,-2.5573,-2.5558,-2.5579,-2.5575,-2.5603,-2.5601,-2.5701,-2.5711,-2.5607,-2.5608,-2.5609,0,-2.5798,-2.5809,-2.5776,-2.5775,-2.5762,-2.5761,-2.5757,-2.5717,-2.5714,-2.5692,-2.57,-2.5694,-2.5686,-2.5683,-2.5655,-2.5647,-2.5632,-2.5667,-2.563,-2.564,-2.5631,-2.5631,-2.5632,-2.5675,-2.5677,-2.5678,-2.5679,0,-2.5889,-2.5872,-2.5866,-2.5855,-2.585,-2.584,-2.5826,-2.5828,-2.5784,-2.5783,-2.5778,-2.5773,-2.5761,-2.5755,-2.5741,-2.5727,-2.5695,-2.569,-2.5696,-2.5707,-2.5718,-2.5712,-2.5601,-2.5688,-2.5687,-2.5687,-2.5686,-2.5686,-2.596,-2.5968,-2.5945,-2.594,-2.5926,-2.5914,-2.5918,-2.5894,-2.5889,-2.5877,-2.5854,-2.5853,-2.5832,-2.581,-2.5798,-2.5797,-2.5778,-2.5787,-2.5789,-2.5791,-2.5797,-2.5719,-2.5794,-2.5794,-2.5794,-2.5793,-2.5793,0,-2.6049,-2.6032,-2.6027,-2.601,-2.6006,-2.5976,-2.5959,-2.5958,-2.5958,-2.5941,-2.5934,-2.5929,-2.5922,-2.5893,-2.5883,-2.5888,-2.5873,-2.5887,-2.5886,-2.5883,-2.5814,-2.581,-2.5899,-2.5899,-2.5899,-2.5899,-2.5899,-2.5899,-2.6094,-2.6105,-2.6085,-2.6088,-2.607,-2.6069,-2.6062,-2.6051,-2.6037,-2.6033,-2.6027,-2.6008,-2.5986,-2.5974,-2.5967,-2.5958,-2.5956,-2.5975,-2.5962,-2.5898,-2.5888,-2.5878,-2.5874,-2.5975,-2.5975,-2.603,-2.6031,-2.6031]}]]